DELTA 1 DEB, 2223

Orbit data source: Space-Track

DELTA 1 DEB, 2223 is space debris in SSO originally from a launch on Mon, 28 Feb 1966 UTC launched from the Air Force Eastern Test Range (AFETR). Debris objects in space refer to the collection of defunct objects orbiting the Earth. Examples of debris include non-operational satellites, rocket bodies, and fragments generated from explosions, collisions, or faulty payload assembly.

Loading next visibility...
Identifier
2223, 1966-016C
Orbit
SSO
Country
Flag of USUS
Related business
Manufacturer
Unknown
Mission
Spacecraft
Bus & Motor
Unknown
Mass
1 kg wet, 1 kg dry
Launch date (UTC)
1966-02-28 (60 years ago)
Launch vehicle
Unknown
Launch site
Air Force Eastern Test Range (AFETR)
Object type
Payload
Rocket body
Debris
Shape & HBR
Unknown
Radar Cross Section
Small (<0.1 m²)

Expand to show TLE details & history
Last TLE update: 1 day ago

TLE from 1 day ago
0 DELTA 1 DEB
1  2223U 66016C   26101.32661198 -.00000023  00000-0  78856-4 0  9998
2  2223 100.7357 132.2446 0093494 356.3371  21.2782 12.87770587818352
Epoch: 2026-04-11T07:50Z
TLE epoch observation values (Epoch: 2026-04-11T07:50:19.275Z)
Latitude
17.67537°
Longitude
171.67043°
Altitude
1,245.581 km
Speed
7.265 km/s
True Right ascension
08h 35m 11s
True Declination
17° 34' 57"
Sunlit
Object was in daylight at epoch
Visualization orbit readout
Latitude
Unknown
Longitude
Unknown
Altitude
Unknown
Speed
Unknown
Apparent Right ascension
Unknown
Apparent Declination
Unknown
Sunlit
N/A
Visualization observer readout
Local Sidereal Time
20:42:08
Azimuth
Unknown
Elevation
Unknown
Doppler factor
Unknown
Orbital elements
Apogee altitude
1,379.683 km
Perigee altitude
1,235.965 km
Semi-major axis
7,685.961 km
Eccentricity
0.00935
Inclination
100.7357°
RAAN
132.2446°
Arg. of periapsis
356.3371°
True anomaly
21.67127°
Mean anomaly
21.2782°
Eccentric anomaly
21.4743°
Mean motion
3.22104 °/min
Orbital period
111.77 mins
BSTAR
0.000078856
Loading maneuver chart data...
Computing Atmospheric mass density...
Loading historical data...
Loading historical data...
Loading historical data...
Loading historical data...
Loading historical data...
Loading historical data...
Loading historical data...
Other satellites on launch #16 in the year 1966 (1966-02-28 UTC)

Documentation

Showing up to 5 results
|